Rotterdam, Netherlands

10:16 PM CEST on August 28, 2016 (GMT +0200)
Rotterdam

Weather History for EHRD - May, 2014

Change the Weather History Date:

Wednesday, May 14, 2014

  Actual Average Record
Temperature  
Mean Temperature 47 °F -  
Max Temperature 57 °F 64 °F 78 °F (2000)
Min Temperature 37 °F 48 °F 37 °F (2004)
Degree Days  
Heating Degree Days 18    
Moisture  
Dew Point 42 °F    
Average Humidity 78    
Maximum Humidity 100    
Minimum Humidity 40    
Precipitation  
Precipitation 0.04 in - - ()
Sea Level Pressure  
Sea Level Pressure 30.37 in    
Wind  
Wind Speed 6 mph ()    
Max Wind Speed 15 mph    
Max Gust Speed -    
Visibility 8.5 miles    
Events Rain , Thunderstorm    
Averages and records for this station are not official NWS values.
T = Trace of Precipitation, MM = Missing Value Source: Averaged Metar Reports

Daily Weather History Graph

Daily Weather History Graph

Search for Another Location

Airport or City:

Trip Planner

Search our weather history database for the weather conditions in past years. The results will help you decide how hot, cold, wet, or windy it might be!

Date:

Astronomy

May. 14, 2014 Rise Set
Actual Time 5:50 AM CEST 9:27 PM CEST
Civil Twilight 5:08 AM CEST 10:09 PM CEST
Nautical Twilight 4:11 AM CEST 11:07 PM CEST
Astronomical Twilight 2:45 AM CEST 12:37 AM CEST
Moon 9:11 PM CEST (5/14) 5:46 AM CEST (5/14)
Length of Visible Light 17h 01m
Length of Day
15h 37m
Full, 100% of the Moon is Illuminated
May 14
Full
May 14
Full
May 21
Last Quarter
May 28
New
Jun 5
First Quarter

Hourly Weather History & Observations

Time (CEST) Temp. Windchill Dew Point Humidity Pressure Visibility Wind Dir Wind Speed Gust Speed Precip Events Conditions
12:00 AM 41 °F - 39 °F 90% 30.25 in 14 mi West 4.5 mph - -  
12:25 AM 42.8 °F 41.1 °F 42.8 °F 100% 30.24 in 6.2 mi West 3.5 mph - N/A   Unknown
12:55 AM 42.8 °F 40.1 °F 41.0 °F 93% 30.24 in 6.2 mi West 4.6 mph - N/A   Unknown
1:00 AM 43 °F - 41 °F 90% 30.27 in 14 mi West 4.5 mph - -   Scattered Clouds
1:25 AM 41.0 °F 39.0 °F 39.2 °F 93% 30.24 in 6.2 mi West 3.5 mph - N/A   Unknown
1:55 AM 42.8 °F 40.1 °F 41.0 °F 93% 30.27 in 6.2 mi West 4.6 mph - N/A   Unknown
2:00 AM 42 °F - 40 °F 92% 30.28 in 7 mi West 4.5 mph - -   Partly Cloudy
2:25 AM 41.0 °F 38.0 °F 41.0 °F 100% 30.27 in 6.2 mi West 4.6 mph - N/A   Unknown
2:55 AM 41.0 °F 39.0 °F 41.0 °F 100% 30.27 in 6.2 mi West 3.5 mph - N/A   Partly Cloudy
3:00 AM 42 °F - 42 °F 98% 30.28 in 7 mi West 4.5 mph - -   Scattered Clouds
3:25 AM 41.0 °F 39.0 °F 41.0 °F 100% 30.27 in 5.6 mi West 3.5 mph - N/A   Scattered Clouds
3:55 AM 41.0 °F 38.0 °F 41.0 °F 100% 30.27 in 6.2 mi West 4.6 mph - N/A   Unknown
4:00 AM 40 °F - 40 °F 98% 30.29 in 8 mi West 4.5 mph - -  
4:25 AM 39.2 °F 35.9 °F 39.2 °F 100% 30.27 in 6.2 mi West 4.6 mph - N/A   Unknown
4:55 AM 39.2 °F 37.0 °F 39.2 °F 100% 30.27 in 6.2 mi West 3.5 mph - N/A   Unknown
5:00 AM 40 °F - 38 °F 92% 30.30 in 9 mi West 4.5 mph - -  
5:25 AM 41.0 °F 39.0 °F 41.0 °F 100% 30.30 in 6.2 mi West 3.5 mph - N/A   Unknown
5:55 AM 41.0 °F - 41.0 °F 100% 30.30 in 6.2 mi WSW 2.3 mph - N/A   Unknown
6:00 AM 41 °F - 41 °F 100% 30.31 in 7 mi West 2.2 mph - -  
6:25 AM 41.0 °F - 41.0 °F 100% 30.30 in 6.2 mi WSW 2.3 mph - N/A   Partly Cloudy
6:55 AM 42.8 °F - 42.8 °F 100% 30.30 in 6.2 mi West 2.3 mph - N/A   Unknown
7:00 AM 43 °F - 42 °F 93% 30.31 in 13 mi West 2.2 mph - -   Scattered Clouds
7:25 AM 46.4 °F - 44.6 °F 93% 30.30 in 6.2 mi West 2.3 mph - N/A   Unknown
7:55 AM 50.0 °F - 46.4 °F 87% 30.30 in 6.2 mi West 3.5 mph - N/A   Unknown
8:00 AM 51 °F - 47 °F 83% 30.33 in 12 mi West 4.5 mph - -   Partly Cloudy
8:25 AM 51.8 °F - 48.2 °F 88% 30.33 in 6.2 mi West 4.6 mph - N/A   Unknown
8:55 AM 53.6 °F - 46.4 °F 77% 30.33 in 6.2 mi West 5.8 mph - N/A   Partly Cloudy
9:00 AM 54 °F - 45 °F 64% 30.34 in 11 mi West 8.9 mph - -   Partly Cloudy
9:25 AM 53.6 °F - 44.6 °F 72% 30.33 in 6.2 mi West 8.1 mph - N/A   Unknown
9:55 AM 55.4 °F - 44.6 °F 67% 30.33 in 6.2 mi West 6.9 mph - N/A   Partly Cloudy
10:00 AM 56 °F - 45 °F 57% 30.34 in 17 mi West 6.7 mph - -   Mostly Cloudy
10:25 AM 57.2 °F - 46.4 °F 67% 30.33 in 6.2 mi West 6.9 mph - N/A   Scattered Clouds
10:55 AM 55.4 °F - 46.4 °F 72% 30.33 in 6.2 mi West 10.4 mph - N/A   Mostly Cloudy
11:00 AM 52 °F - 47 °F 79% 30.36 in 4 mi West 11.2 mph - - Rain Rain Showers
11:25 AM 50.0 °F - 46.4 °F 87% 30.36 in 6.2 mi NNW 6.9 mph - N/A Rain , Thunderstorm Light Thunderstorms and Rain
11:55 AM 51.8 °F - 48.2 °F 88% 30.36 in 6.2 mi North 5.8 mph - N/A   Scattered Clouds
12:00 PM 54 °F - 47 °F 70% 30.37 in 19 mi NW 6.7 mph - - Thunderstorm Light Thunderstorm
12:25 PM 55.4 °F - 48.2 °F 77% 30.36 in 6.2 mi WNW 8.1 mph - N/A   Partly Cloudy
12:55 PM 55.4 °F - 46.4 °F 72% 30.36 in 6.2 mi NW 12.7 mph - N/A   Partly Cloudy
1:25 PM 55.4 °F - 48.2 °F 77% 30.36 in 6.2 mi NNW 9.2 mph - N/A   Mostly Cloudy
1:55 PM 57.2 °F - 46.4 °F 67% 30.36 in 6.2 mi NNW 11.5 mph - N/A   Mostly Cloudy
2:00 PM 56 °F - 46 °F 59% 30.39 in 19 mi NNW 11.2 mph - -   Partly Cloudy
2:25 PM 55.4 °F - 44.6 °F 67% 30.39 in 6.2 mi North 11.5 mph - N/A   Mostly Cloudy
2:55 PM 55.4 °F - 42.8 °F 63% 30.39 in 6.2 mi North 12.7 mph - N/A   Mostly Cloudy
3:00 PM 56 °F - 44 °F 55% 30.40 in 15 mi NNW 13.4 mph - -   Overcast
3:25 PM 57.2 °F - 44.6 °F 63% 30.39 in 6.2 mi North 13.8 mph - N/A   Scattered Clouds
3:55 PM 55.4 °F - 41.0 °F 58% 30.42 in 6.2 mi NNW 15.0 mph - N/A   Scattered Clouds
4:00 PM 56 °F - 42 °F 48% 30.43 in 19 mi NNW 13.4 mph - -   Partly Cloudy
4:25 PM 55.4 °F - 42.8 °F 63% 30.42 in 6.2 mi NNW 13.8 mph - N/A   Partly Cloudy
5:00 PM 53 °F - 41 °F 52% 30.45 in 19 mi NNW 13.4 mph - -   Mostly Cloudy
5:25 PM 55.4 °F - 42.8 °F 63% 30.42 in 6.2 mi NNW 15.0 mph - N/A   Mostly Cloudy
5:55 PM 55.4 °F - 39.2 °F 54% 30.45 in 6.2 mi North 12.7 mph - N/A   Scattered Clouds
6:00 PM 55 °F - 38 °F 40% 30.45 in 19 mi North 11.2 mph - -   Partly Cloudy
6:25 PM 55.4 °F - 41.0 °F 58% 30.45 in 6.2 mi NNW 12.7 mph - N/A   Mostly Cloudy
6:55 PM 51.8 °F - 39.2 °F 62% 30.45 in 6.2 mi North 12.7 mph - N/A   Partly Cloudy
7:00 PM 52 °F - 39 °F 51% 30.47 in 22 mi NNW 11.2 mph - -   Scattered Clouds
7:25 PM 51.8 °F - 39.2 °F 62% 30.45 in 6.2 mi North 10.4 mph - N/A   Scattered Clouds
7:55 PM 51.8 °F - 41.0 °F 67% 30.45 in 6.2 mi NNW 12.7 mph - N/A   Mostly Cloudy
8:00 PM 51 °F - 40 °F 55% 30.48 in 19 mi North 11.2 mph - -   Partly Cloudy
8:25 PM 51.8 °F - 37.4 °F 58% 30.48 in 6.2 mi North 10.4 mph - N/A   Partly Cloudy
8:55 PM 50.0 °F - 39.2 °F 66% 30.48 in 6.2 mi North 6.9 mph - N/A   Unknown
9:00 PM 49 °F - 39 °F 58% 30.49 in 19 mi NNW 6.7 mph - -   Scattered Clouds
9:25 PM 48.2 °F - 39.2 °F 71% 30.48 in 6.2 mi North 5.8 mph - N/A   Unknown
9:55 PM 46.4 °F 43.5 °F 39.2 °F 76% 30.48 in 6.2 mi NNW 5.8 mph - N/A   Unknown
10:00 PM 46 °F - 40 °F 72% 30.51 in 19 mi NNW 4.5 mph - -  
10:25 PM 46.4 °F 45.2 °F 39.2 °F 76% 30.51 in 6.2 mi North 3.5 mph - N/A   Unknown
10:55 PM 44.6 °F 43.1 °F 39.2 °F 81% 30.51 in 6.2 mi North 3.5 mph - N/A   Unknown
11:00 PM 44 °F - 39 °F 78% 30.51 in 22 mi NNW 4.5 mph - -  
11:25 PM 42.8 °F - 39.2 °F 87% 30.51 in 6.2 mi NNW 2.3 mph - N/A   Unknown
11:55 PM 41.0 °F - 39.2 °F 93% 30.51 in 6.2 mi NNW 2.3 mph - N/A   Unknown